| time (UTC) | temp C | wind direction | speed KPH | gust KPH | rain 1hr cm | rain 24hr cm | rain mn cm | humidity % | barometer mb |
| 20260508030817 | 18 | 343 | 9.7 | 14.5 | 0.00 | 0.00 | 0.00 | 32 | 1017.1 |
| 20260508025816 | 18 | 355 | 8.0 | 9.7 | 0.00 | 0.00 | 0.00 | 31 | 1016.7 |
| 20260508024816 | 18 | 358 | 8.0 | 8.0 | 0.00 | 0.00 | 0.00 | 31 | 1016.5 |
| 20260508023817 | 19 | 10 | 6.4 | 9.7 | 0.00 | 0.00 | 0.00 | 30 | 1016.5 |
| 20260508022837 | 19 | 37 | 3.2 | 8.0 | 0.00 | 0.00 | 0.00 | 31 | 1016.5 |
| 20260508021816 | 19 | 35 | 6.4 | 12.9 | 0.00 | 0.00 | 0.00 | 30 | 1016.4 |
| 20260508020837 | 20 | 67 | 3.2 | 6.4 | 0.00 | 0.00 | 0.00 | 30 | 1016.4 |
| 20260508015816 | 20 | 40 | 8.0 | 8.0 | 0.00 | 0.00 | 0.00 | 29 | 1016.4 |
| 20260508014816 | 20 | 66 | 4.8 | 8.0 | 0.00 | 0.00 | 0.00 | 29 | 1016.4 |
| 20260508013816 | 21 | 69 | 3.2 | 6.4 | 0.00 | 0.00 | 0.00 | 28 | 1016.8 |
| 20260508012816 | 21 | 69 | 6.4 | 8.0 | 0.00 | 0.00 | 0.00 | 27 | 1016.4 |
| 20260508011816 | 21 | 64 | 4.8 | 6.4 | 0.00 | 0.00 | 0.00 | 28 | 1016.5 |
| 20260508010816 | 21 | 101 | 4.8 | 9.7 | 0.00 | 0.00 | 0.00 | 28 | 1016.8 |
| 20260508005836 | 21 | 72 | 6.4 | 9.7 | 0.00 | 0.00 | 0.00 | 28 | 1017.0 |
| 20260508004816 | 21 | 101 | 4.8 | 12.9 | 0.00 | 0.00 | 0.00 | 27 | 1017.0 |
| 20260508003816 | 21 | 68 | 8.0 | 9.7 | 0.00 | 0.00 | 0.00 | 27 | 1017.1 |
| 20260508002816 | 22 | 84 | 6.4 | 11.3 | 0.00 | 0.00 | 0.00 | 26 | 1017.1 |
| 20260508001816 | 22 | 18 | 4.8 | 11.3 | 0.00 | 0.00 | 0.00 | 25 | 1017.3 |
| 20260508000816 | 21 | 15 | 3.2 | 14.5 | 0.00 | 0.00 | 0.00 | 27 | 1017.5 |
| 20260507235816 | 21 | 41 | 12.9 | 19.3 | 0.00 | 0.00 | 0.00 | 27 | 1017.6 |
| 20260507234816 | 22 | 353 | 9.7 | 17.7 | 0.00 | 0.00 | 0.00 | 27 | 1017.7 |
| 20260507233816 | 21 | 69 | 9.7 | 14.5 | 0.00 | 0.00 | 0.00 | 26 | 1017.7 |
| 20260507232816 | 21 | 39 | 11.3 | 19.3 | 0.00 | 0.00 | 0.00 | 26 | 1017.7 |
| 20260507231816 | 22 | 32 | 9.7 | 14.5 | 0.00 | 0.00 | 0.00 | 25 | 1018.1 |
| 20260507230816 | 22 | 43 | 9.7 | 16.1 | 0.00 | 0.00 | 0.00 | 25 | 1018.2 |
| 20260507225816 | 22 | 38 | 16.1 | 22.5 | 0.00 | 0.00 | 0.00 | 25 | 1018.3 |
| 20260507224816 | 22 | 60 | 8.0 | 16.1 | 0.00 | 0.00 | 0.00 | 25 | 1018.3 |
| 20260507223836 | 22 | 152 | 8.0 | 16.1 | 0.00 | 0.00 | 0.00 | 24 | 1018.2 |
| 20260507222816 | 22 | 158 | 8.0 | 14.5 | 0.00 | 0.00 | 0.00 | 25 | 1018.5 |
| 20260507221816 | 22 | 149 | 12.9 | 14.5 | 0.00 | 0.00 | 0.00 | 25 | 1018.9 |
| 20260507220816 | 22 | 152 | 6.4 | 11.3 | 0.00 | 0.00 | 0.00 | 25 | 1019.3 |
| 20260507215816 | 21 | 86 | 8.0 | 16.1 | 0.00 | 0.00 | 0.00 | 26 | 1019.1 |
| 20260507214816 | 21 | 154 | 11.3 | 16.1 | 0.00 | 0.00 | 0.00 | 25 | 1019.1 |
| 20260507213816 | 21 | 137 | 8.0 | 14.5 | 0.00 | 0.00 | 0.00 | 25 | 1019.3 |
| 20260507212816 | 21 | 73 | 8.0 | 12.9 | 0.00 | 0.00 | 0.00 | 27 | 1019.5 |
| 20260507211816 | 21 | 66 | 9.7 | 16.1 | 0.00 | 0.00 | 0.00 | 27 | 1019.7 |
| 20260507210816 | 20 | 88 | 14.5 | 19.3 | 0.00 | 0.00 | 0.00 | 26 | 1019.8 |
| 20260507205836 | 20 | 44 | 6.4 | 12.9 | 0.00 | 0.00 | 0.00 | 26 | 1020.0 |
| 20260507204816 | 20 | 80 | 11.3 | 16.1 | 0.00 | 0.00 | 0.00 | 26 | 1020.2 |
| 20260507203815 | 20 | 124 | 9.7 | 16.1 | 0.00 | 0.00 | 0.00 | 26 | 1020.3 |
| 20260507202816 | 20 | 97 | 14.5 | 19.3 | 0.00 | 0.00 | 0.00 | 27 | 1020.2 |
| 20260507201836 | 20 | 141 | 12.9 | 17.7 | 0.00 | 0.00 | 0.00 | 27 | 1020.2 |
| 20260507200816 | 19 | 105 | 11.3 | 14.5 | 0.00 | 0.00 | 0.00 | 27 | 1020.5 |
| 20260507195816 | 20 | 90 | 9.7 | 16.1 | 0.00 | 0.00 | 0.00 | 27 | 1020.5 |
| 20260507194815 | 20 | 118 | 8.0 | 14.5 | 0.00 | 0.00 | 0.00 | 27 | 1020.6 |
| 20260507193815 | 19 | 106 | 11.3 | 14.5 | 0.00 | 0.00 | 0.00 | 27 | 1020.7 |
| 20260507192816 | 19 | 121 | 8.0 | 16.1 | 0.00 | 0.00 | 0.00 | 26 | 1021.0 |
| 20260507191815 | 18 | 84 | 12.9 | 19.3 | 0.00 | 0.00 | 0.00 | 27 | 1020.8 |
| 20260507190816 | 18 | 106 | 12.9 | 17.7 | 0.00 | 0.00 | 0.00 | 27 | 1021.0 |
| 20260507185816 | 18 | 67 | 9.7 | 17.7 | 0.00 | 0.00 | 0.00 | 28 | 1021.6 |
| 20260507184815 | 18 | 107 | 8.0 | 12.9 | 0.00 | 0.00 | 0.00 | 27 | 1021.7 |
| 20260507183815 | 18 | 75 | 9.7 | 14.5 | 0.00 | 0.00 | 0.00 | 27 | 1021.9 |
| 20260507182815 | 17 | 102 | 8.0 | 12.9 | 0.00 | 0.00 | 0.00 | 28 | 1021.9 |
| 20260507181816 | 17 | 88 | 11.3 | 17.7 | 0.00 | 0.00 | 0.00 | 28 | 1022.1 |
| 20260507180815 | 17 | 106 | 4.8 | 12.9 | 0.00 | 0.00 | 0.00 | 29 | 1022.2 |
| 20260507175856 | 16 | 119 | 6.4 | 12.9 | 0.00 | 0.00 | 0.00 | 29 | 1022.1 |
| 20260507174835 | 16 | 115 | 6.4 | 17.7 | 0.00 | 0.00 | 0.00 | 29 | 1022.3 |
| 20260507173815 | 16 | 131 | 9.7 | 16.1 | 0.00 | 0.00 | 0.00 | 30 | 1022.3 |
| 20260507172815 | 16 | 119 | 9.7 | 16.1 | 0.00 | 0.00 | 0.00 | 28 | 1021.5 |
| 20260507171835 | 15 | 69 | 9.7 | 12.9 | 0.00 | 0.00 | 0.00 | 32 | 1021.6 |
| 20260507170815 | 15 | 86 | 11.3 | 16.1 | 0.00 | 0.00 | 0.00 | 35 | 1021.6 |
| 20260507165815 | 14 | 106 | 8.0 | 14.5 | 0.00 | 0.00 | 0.00 | 36 | 1022.5 |
| 20260507164835 | 13 | 117 | 3.2 | 11.3 | 0.00 | 0.00 | 0.00 | 41 | 1022.6 |
| 20260507163815 | 13 | 108 | 4.8 | 6.4 | 0.00 | 0.00 | 0.00 | 44 | 1022.8 |
| 20260507162815 | 13 | 132 | 3.2 | 9.7 | 0.00 | 0.00 | 0.00 | 46 | 1022.8 |
| 20260507161815 | 13 | 127 | 6.4 | 12.9 | 0.00 | 0.00 | 0.00 | 45 | 1022.8 |
| 20260507160815 | 12 | 139 | 3.2 | 9.7 | 0.00 | 0.00 | 0.00 | 47 | 1022.6 |
| 20260507155815 | 12 | 88 | 1.6 | 3.2 | 0.00 | 0.00 | 0.00 | 47 | 1022.3 |
| 20260507154815 | 11 | 60 | 4.8 | 8.0 | 0.00 | 0.00 | 0.00 | 49 | 1022.3 |
| 20260507153815 | 11 | 113 | 3.2 | 4.8 | 0.00 | 0.00 | 0.00 | 50 | 1022.5 |
| 20260507152815 | 11 | 74 | 4.8 | 8.0 | 0.00 | 0.00 | 0.00 | 50 | 1022.9 |
| 20260507151815 | 11 | 106 | 6.4 | 11.3 | 0.00 | 0.00 | 0.00 | 51 | 1022.9 |
| 20260507150815 | 11 | 76 | 1.6 | 6.4 | 0.00 | 0.00 | 0.00 | 50 | 1022.9 |
| 20260507145837 | 11 | 119 | 3.2 | 6.4 | 0.00 | 0.00 | 0.00 | 55 | 1022.6 |
| 20260507144817 | 10 | 92 | 1.6 | 4.8 | 0.00 | 0.00 | 0.00 | 57 | 1022.2 |
| 20260507143837 | 10 | 85 | 4.8 | 6.4 | 0.00 | 0.00 | 0.00 | 59 | 1022.3 |
| 20260507142817 | 10 | 83 | 3.2 | 8.0 | 0.00 | 0.00 | 0.00 | 59 | 1022.6 |
| 20260507141817 | 10 | 83 | 1.6 | 3.2 | 0.00 | 0.00 | 0.00 | 60 | 1022.6 |
| 20260507140817 | 9 | 83 | 1.6 | 4.8 | 0.00 | 0.00 | 0.00 | 61 | 1022.6 |
| 20260507135837 | 9 | 80 | 3.2 | 4.8 | 0.00 | 0.00 | 0.00 | 63 | 1023.0 |
| 20260507134817 | 9 | 70 | 1.6 | 3.2 | 0.00 | 0.00 | 0.00 | 64 | 1022.9 |
| 20260507133817 | 8 | 85 | 4.8 | 6.4 | 0.00 | 0.00 | 0.00 | 67 | 1023.0 |
| 20260507132817 | 8 | 82 | 3.2 | 4.8 | 0.00 | 0.00 | 0.00 | 68 | 1022.8 |
| 20260507131817 | 7 | 0.0 | 0.0 | 0.00 | 0.00 | 0.00 | 68 | 1022.4 | |
| 20260507130817 | 7 | 72 | 0.0 | 1.6 | 0.00 | 0.00 | 0.00 | 66 | 1022.4 |
| 20260507125817 | 7 | 73 | 3.2 | 4.8 | 0.00 | 0.00 | 0.00 | 65 | 1022.4 |
| 20260507124837 | 7 | 71 | 4.8 | 8.0 | 0.00 | 0.00 | 0.00 | 63 | 1022.0 |
| 20260507123817 | 7 | 50 | 4.8 | 6.4 | 0.00 | 0.00 | 0.00 | 58 | 1021.8 |
| 20260507122816 | 7 | 50 | 4.8 | 6.4 | 0.00 | 0.00 | 0.00 | 60 | 1022.0 |
| 20260507121837 | 7 | 49 | 4.8 | 6.4 | 0.00 | 0.00 | 0.00 | 59 | 1022.0 |
| 20260507120816 | 7 | 11 | 1.6 | 3.2 | 0.00 | 0.00 | 0.00 | 55 | 1021.6 |
| 20260507115817 | 7 | 11 | 3.2 | 4.8 | 0.00 | 0.00 | 0.00 | 54 | 1021.9 |
| 20260507114817 | 7 | 11 | 3.2 | 4.8 | 0.00 | 0.00 | 0.00 | 56 | 1022.0 |
| 20260507113816 | 7 | 11 | 3.2 | 4.8 | 0.00 | 0.00 | 0.00 | 59 | 1021.8 |
| 20260507112817 | 7 | 11 | 4.8 | 6.4 | 0.00 | 0.00 | 0.00 | 62 | 1021.8 |
| 20260507111816 | 7 | 11 | 6.4 | 8.0 | 0.00 | 0.00 | 0.00 | 61 | 1022.0 |
| 20260507110836 | 7 | 11 | 4.8 | 4.8 | 0.00 | 0.00 | 0.00 | 62 | 1022.1 |
| 20260507105816 | 7 | 11 | 6.4 | 8.0 | 0.00 | 0.00 | 0.00 | 61 | 1021.8 |
| 20260507104816 | 7 | 11 | 6.4 | 8.0 | 0.00 | 0.00 | 0.00 | 63 | 1022.0 |
| 20260507103836 | 7 | 11 | 8.0 | 8.0 | 0.00 | 0.00 | 0.00 | 65 | 1022.1 |
| 20260507102816 | 7 | 11 | 3.2 | 4.8 | 0.00 | 0.00 | 0.00 | 65 | 1021.9 |
| 20260507101857 | 7 | 11 | 1.6 | 3.2 | 0.00 | 0.00 | 0.00 | 66 | 1021.9 |
| 20260507100816 | 7 | 11 | 1.6 | 3.2 | 0.00 | 0.00 | 0.00 | 65 | 1022.1 |
| 20260507095816 | 7 | 11 | 3.2 | 4.8 | 0.00 | 0.00 | 0.00 | 67 | 1022.1 |
| 20260507094816 | 7 | 356 | 4.8 | 6.4 | 0.00 | 0.00 | 0.00 | 67 | 1022.2 |
| 20260507093816 | 7 | 329 | 3.2 | 4.8 | 0.00 | 0.00 | 0.00 | 65 | 1022.4 |
| 20260507092816 | 8 | 329 | 6.4 | 8.0 | 0.00 | 0.00 | 0.00 | 61 | 1022.9 |
| 20260507091837 | 8 | 111 | 1.6 | 3.2 | 0.00 | 0.00 | 0.00 | 60 | 1022.9 |
| 20260507090816 | 8 | 53 | 3.2 | 6.4 | 0.00 | 0.05 | 0.00 | 61 | 1022.9 |
| 20260507085816 | 8 | 350 | 1.6 | 3.2 | 0.00 | 0.15 | 0.00 | 60 | 1022.6 |
| 20260507084816 | 8 | 350 | 1.6 | 3.2 | 0.00 | 0.20 | 0.00 | 59 | 1022.8 |
| 20260507083816 | 8 | 350 | 1.6 | 4.8 | 0.00 | 0.20 | 0.00 | 57 | 1022.7 |
| 20260507082836 | 8 | 350 | 6.4 | 8.0 | 0.00 | 0.20 | 0.00 | 52 | 1022.6 |
| 20260507081816 | 8 | 350 | 6.4 | 8.0 | 0.00 | 0.20 | 0.00 | 53 | 1022.8 |
| 20260507080816 | 8 | 350 | 6.4 | 8.0 | 0.00 | 0.20 | 0.00 | 50 | 1022.7 |
| 20260507075836 | 7 | 350 | 8.0 | 9.7 | 0.00 | 0.20 | 0.00 | 51 | 1022.4 |
| 20260507074816 | 7 | 350 | 3.2 | 4.8 | 0.00 | 0.20 | 0.00 | 48 | 1022.4 |
| 20260507073816 | 7 | 350 | 4.8 | 6.4 | 0.00 | 0.20 | 0.00 | 48 | 1022.5 |
| 20260507072816 | 8 | 350 | 4.8 | 4.8 | 0.00 | 0.20 | 0.00 | 46 | 1022.6 |
| 20260507071836 | 8 | 350 | 3.2 | 3.2 | 0.00 | 0.20 | 0.00 | 47 | 1022.6 |
| 20260507070816 | 8 | 350 | 1.6 | 4.8 | 0.00 | 0.20 | 0.00 | 47 | 1022.6 |
| 20260507065816 | 8 | 350 | 1.6 | 3.2 | 0.00 | 0.20 | 0.00 | 46 | 1022.2 |
| 20260507064816 | 8 | 350 | 3.2 | 4.8 | 0.00 | 0.20 | 0.00 | 44 | 1022.4 |
| 20260507063816 | 9 | 350 | 1.6 | 3.2 | 0.00 | 0.20 | 0.00 | 42 | 1022.3 |
| 20260507062816 | 8 | 350 | 4.8 | 8.0 | 0.00 | 0.20 | 0.00 | 42 | 1022.4 |
| 20260507061816 | 9 | 331 | 4.8 | 8.0 | 0.00 | 0.20 | 0.00 | 41 | 1022.6 |
| 20260507060816 | 10 | 331 | 4.8 | 6.4 | 0.00 | 0.20 | 0.00 | 39 | 1022.6 |
| 20260507055815 | 10 | 300 | 3.2 | 4.8 | 0.00 | 0.20 | 0.20 | 38 | 1022.6 |
| 20260507054815 | 10 | 300 | 3.2 | 4.8 | 0.00 | 0.20 | 0.20 | 37 | 1022.5 |
| 20260507053815 | 10 | 300 | 4.8 | 6.4 | 0.00 | 0.20 | 0.20 | 37 | 1022.6 |
| 20260507052815 | 9 | 302 | 6.4 | 8.0 | 0.00 | 0.20 | 0.20 | 40 | 1022.1 |
| 20260507051815 | 8 | 325 | 8.0 | 9.7 | 0.00 | 0.20 | 0.20 | 41 | 1021.8 |
| 20260507050817 | 8 | 338 | 3.2 | 6.4 | 0.00 | 0.20 | 0.20 | 45 | 1021.9 |
| 20260507045817 | 8 | 269 | 9.7 | 12.9 | 0.00 | 0.20 | 0.20 | 47 | 1021.6 |
| 20260507044817 | 10 | 224 | 4.8 | 8.0 | 0.00 | 0.20 | 0.20 | 41 | 1022.3 |
| 20260507043815 | 11 | 330 | 6.4 | 9.7 | 0.00 | 0.20 | 0.20 | 33 | 1022.3 |
| 20260507042817 | 11 | 320 | 6.4 | 8.0 | 0.00 | 0.20 | 0.20 | 33 | 1022.2 |
| 20260507041817 | 12 | 321 | 8.0 | 9.7 | 0.00 | 0.20 | 0.20 | 32 | 1022.5 |
| 20260507040817 | 12 | 310 | 9.7 | 12.9 | 0.00 | 0.20 | 0.20 | 30 | 1022.6 |
| 20260507035817 | 12 | 316 | 8.0 | 12.9 | 0.00 | 0.20 | 0.20 | 32 | 1022.5 |
| 20260507034817 | 11 | 314 | 14.5 | 17.7 | 0.00 | 0.20 | 0.20 | 35 | 1022.4 |
| 20260507033817 | 11 | 314 | 16.1 | 19.3 | 0.00 | 0.20 | 0.20 | 34 | 1022.4 |
| 20260507032817 | 11 | 304 | 11.3 | 16.1 | 0.00 | 0.20 | 0.20 | 34 | 1022.1 |
| 20260507031837 | 11 | 290 | 0.0 | 1.6 | 0.00 | 0.20 | 0.20 | 33 | 1022.0 |